Location: Wildlife_Club
(35.6000°N, 81.4330°W)
Time: 09:13:30
(UTC-04:00)

Courier 1B Rocket - Pass Details

Date: 22 June 2019
Orbit: 920 x 1202 km, 28.2° (Epoch: 20 July)

Event Time Altitude Azimuth Distance (km) Brightness Sun altitude
Exits shadow 03:20:06 12° 139° (SE) 2,693 7.1 -25.2°
Drops below altitude 10° 03:21:41 10° 126° (SE) 2,849 7.3 -25.1°
Sets 03:25:59 0° 101° (E) 3,736 8.3 -24.7°
